| time (UTC) | temp F | wind direction | speed MPH | gust MPH | rain 1hr in | rain 24hr in | rain mn in | humidity % | barometer mb |
| 20260902090005 | 77 | 357 | 0.0 | 3.0 | 0.00 | 1.69 | 0.00 | 95 | 1015.0 |
| 20260902085004 | 77 | 356 | 0.0 | 3.0 | 0.00 | 1.69 | 0.00 | 95 | 1015.0 |
| 20260902084004 | 77 | 358 | 1.0 | 3.0 | 0.00 | 1.69 | 0.00 | 95 | 1015.0 |
| 20260902083004 | 77 | 12 | 2.0 | 5.0 | 0.00 | 1.69 | 0.00 | 95 | 1014.8 |
| 20260902082004 | 77 | 21 | 3.0 | 6.0 | 0.00 | 1.69 | 0.00 | 95 | 1014.8 |
| 20260902081004 | 77 | 23 | 0.0 | 5.0 | 0.00 | 1.69 | 0.00 | 95 | 1014.8 |
| 20260902080004 | 76 | 0 | 0.0 | 0.0 | 0.00 | 1.69 | 0.00 | 95 | 1014.8 |
| 20260902075004 | 76 | 0 | 0.0 | 0.0 | 0.00 | 1.69 | 0.00 | 95 | 1015.0 |
| 20260902074004 | 76 | 0 | 0.0 | 0.0 | 0.00 | 1.69 | 0.00 | 95 | 1015.1 |
| 20260902073004 | 76 | 0 | 0.0 | 0.0 | 0.00 | 1.69 | 0.00 | 95 | 1015.0 |
| 20260902072004 | 76 | 0 | 0.0 | 0.0 | 0.00 | 1.69 | 0.00 | 95 | 1015.0 |
| 20260902071004 | 76 | 0 | 0.0 | 0.0 | 0.00 | 1.69 | 0.00 | 95 | 1015.2 |
| 20260902070006 | 76 | 0 | 0.0 | 0.0 | 0.00 | 1.69 | 0.00 | 95 | 1015.2 |
| 20260902065004 | 76 | 0 | 0.0 | 0.0 | 0.00 | 1.69 | 0.00 | 95 | 1015.2 |
| 20260902064004 | 76 | 0 | 0.0 | 0.0 | 0.00 | 1.69 | 0.00 | 95 | 1015.3 |
| 20260902063004 | 75 | 0 | 0.0 | 0.0 | 0.00 | 1.69 | 0.00 | 95 | 1015.3 |
| 20260902062004 | 75 | 0 | 0.0 | 0.0 | 0.00 | 1.69 | 0.00 | 95 | 1015.5 |
| 20260902061004 | 76 | 0 | 0.0 | 0.0 | 0.00 | 1.69 | 0.00 | 95 | 1015.6 |
| 20260902060025 | 76 | 0 | 0.0 | 0.0 | 0.00 | 1.69 | 0.00 | 95 | 1015.7 |
| 20260902055004 | 76 | 0 | 0.0 | 0.0 | 0.00 | 1.69 | 0.00 | 95 | 1015.7 |
| 20260902054025 | 76 | 0 | 0.0 | 0.0 | 0.00 | 1.69 | 0.00 | 95 | 1015.9 |
| 20260902053004 | 76 | 0 | 0.0 | 0.0 | 0.00 | 1.69 | 0.00 | 95 | 1015.8 |
| 20260902052003 | 76 | 0 | 0.0 | 0.0 | 0.00 | 1.69 | 0.00 | 95 | 1015.9 |
| 20260902051004 | 76 | 0 | 0.0 | 0.0 | 0.00 | 1.69 | 0.00 | 95 | 1015.9 |
| 20260902050007 | 76 | 0 | 0.0 | 0.0 | 0.00 | 1.69 | 0.00 | 95 | 1016.0 |
| 20260902045025 | 76 | 0 | 0.0 | 0.0 | 0.00 | 1.69 | 0.00 | 95 | 1015.9 |
| 20260902044004 | 76 | 0 | 0.0 | 0.0 | 0.00 | 1.69 | 0.00 | 95 | 1016.1 |
| 20260902043004 | 76 | 0 | 0.0 | 0.0 | 0.00 | 1.69 | 0.00 | 95 | 1016.1 |
| 20260902042004 | 76 | 0 | 0.0 | 0.0 | 0.01 | 1.69 | 0.00 | 95 | 1016.0 |
| 20260902041004 | 76 | 0 | 0.0 | 0.0 | 0.01 | 1.69 | 0.00 | 95 | 1016.1 |
| 20260902040005 | 76 | 0 | 0.0 | 0.0 | 0.01 | 1.69 | 0.00 | 95 | 1016.1 |
| 20260902035004 | 76 | 0 | 0.0 | 0.0 | 0.01 | 1.69 | 1.69 | 95 | 1016.2 |
| 20260902034004 | 76 | 0 | 0.0 | 0.0 | 0.01 | 1.69 | 1.69 | 95 | 1016.4 |
| 20260902033025 | 76 | 0 | 0.0 | 0.0 | 0.01 | 1.69 | 1.69 | 95 | 1016.5 |
| 20260902032004 | 76 | 0 | 0.0 | 0.0 | 0.00 | 1.68 | 1.68 | 95 | 1016.7 |
| 20260902031004 | 76 | 0 | 0.0 | 0.0 | 0.00 | 1.68 | 1.68 | 95 | 1016.7 |
| 20260902030004 | 77 | 0 | 0.0 | 0.0 | 0.00 | 1.68 | 1.68 | 95 | 1016.7 |
| 20260902025004 | 77 | 0 | 0.0 | 0.0 | 0.00 | 1.68 | 1.68 | 95 | 1016.8 |
| 20260902024004 | 77 | 0 | 0.0 | 0.0 | 0.00 | 1.68 | 1.68 | 95 | 1016.8 |
| 20260902023004 | 77 | 0 | 0.0 | 0.0 | 0.00 | 1.68 | 1.68 | 95 | 1016.8 |
| 20260902022004 | 77 | 0 | 0.0 | 0.0 | 0.00 | 1.68 | 1.68 | 95 | 1016.8 |
| 20260902021004 | 77 | 0 | 0.0 | 0.0 | 0.00 | 1.68 | 1.68 | 94 | 1016.8 |
| 20260902020025 | 77 | 0 | 0.0 | 0.0 | 0.00 | 1.68 | 1.68 | 95 | 1016.6 |
| 20260902015004 | 77 | 0 | 0.0 | 0.0 | 0.00 | 1.68 | 1.68 | 95 | 1016.5 |
| 20260902014004 | 77 | 0 | 0.0 | 0.0 | 0.00 | 1.68 | 1.68 | 95 | 1016.5 |
| 20260902013004 | 77 | 0 | 0.0 | 0.0 | 0.00 | 1.68 | 1.68 | 95 | 1016.2 |
| 20260902012004 | 77 | 0 | 0.0 | 0.0 | 0.00 | 1.68 | 1.68 | 94 | 1016.3 |
| 20260902011004 | 77 | 0 | 0.0 | 0.0 | 0.00 | 1.68 | 1.68 | 95 | 1016.2 |
| 20260902010004 | 77 | 159 | 0.0 | 1.0 | 0.00 | 1.68 | 1.68 | 95 | 1016.2 |
| 20260902005004 | 77 | 0 | 0.0 | 0.0 | 0.00 | 1.68 | 1.68 | 95 | 1015.9 |
| 20260902004003 | 77 | 0 | 0.0 | 0.0 | 0.01 | 1.68 | 1.68 | 95 | 1015.9 |
| 20260902003004 | 77 | 0 | 0.0 | 0.0 | 0.01 | 1.68 | 1.68 | 95 | 1016.0 |
| 20260902002025 | 77 | 0 | 0.0 | 0.0 | 0.01 | 1.68 | 1.68 | 94 | 1016.1 |
| 20260902001004 | 77 | 0 | 0.0 | 0.0 | 0.01 | 1.68 | 1.68 | 94 | 1016.1 |
| 20260902000004 | 77 | 0 | 0.0 | 0.0 | 0.02 | 1.68 | 1.68 | 95 | 1016.1 |
| 20260901235004 | 76 | 0 | 0.0 | 0.0 | 0.02 | 1.68 | 1.68 | 94 | 1016.0 |
| 20260901234004 | 76 | 0 | 0.0 | 0.0 | 0.02 | 1.67 | 1.67 | 94 | 1016.0 |
| 20260901233003 | 77 | 0 | 0.0 | 0.0 | 0.03 | 1.67 | 1.67 | 94 | 1015.9 |
| 20260901232025 | 76 | 0 | 0.0 | 0.0 | 0.06 | 1.67 | 1.67 | 94 | 1015.8 |
| 20260901231024 | 76 | 0 | 0.0 | 0.0 | 0.08 | 1.67 | 1.67 | 94 | 1015.9 |
| 20260901230004 | 76 | 0 | 0.0 | 0.0 | 0.09 | 1.66 | 1.66 | 94 | 1015.9 |
| 20260901225003 | 76 | 0 | 0.0 | 0.0 | 0.09 | 1.66 | 1.66 | 94 | 1015.8 |
| 20260901224004 | 76 | 0 | 0.0 | 0.0 | 0.08 | 1.65 | 1.65 | 94 | 1015.7 |
| 20260901223004 | 76 | 0 | 0.0 | 0.0 | 0.07 | 1.64 | 1.64 | 94 | 1015.6 |
| 20260901222003 | 76 | 0 | 0.0 | 0.0 | 0.05 | 1.61 | 1.61 | 94 | 1015.6 |
| 20260901221004 | 76 | 0 | 0.0 | 0.0 | 0.05 | 1.59 | 1.59 | 94 | 1015.7 |
| 20260901220004 | 75 | 0 | 0.0 | 0.0 | 0.05 | 1.57 | 1.57 | 94 | 1015.4 |
| 20260901215003 | 75 | 0 | 0.0 | 0.0 | 0.11 | 1.57 | 1.57 | 94 | 1015.4 |
| 20260901214003 | 75 | 0 | 0.0 | 0.0 | 0.19 | 1.57 | 1.57 | 93 | 1015.7 |
| 20260901213003 | 75 | 0 | 0.0 | 0.0 | 0.25 | 1.57 | 1.57 | 93 | 1015.8 |
| 20260901212003 | 76 | 0 | 0.0 | 0.0 | 0.54 | 1.56 | 1.56 | 93 | 1015.5 |
| 20260901211003 | 76 | 0 | 0.0 | 0.0 | 1.02 | 1.54 | 1.54 | 93 | 1015.7 |
| 20260901210025 | 76 | 0 | 0.0 | 0.0 | 1.27 | 1.52 | 1.52 | 93 | 1015.5 |
| 20260901205003 | 76 | 184 | 0.0 | 3.0 | 1.21 | 1.46 | 1.46 | 93 | 1015.5 |
| 20260901204003 | 75 | 163 | 1.0 | 4.0 | 1.13 | 1.38 | 1.38 | 92 | 1015.7 |
| 20260901203003 | 76 | 153 | 1.0 | 4.0 | 1.08 | 1.32 | 1.32 | 92 | 1015.8 |
| 20260901202024 | 77 | 79 | 6.0 | 13.0 | 0.78 | 1.02 | 1.05 | 91 | 1016.2 |
| 20260901201004 | 78 | 90 | 4.0 | 13.0 | 0.28 | 0.52 | 0.52 | 91 | 1015.4 |
| 20260901200004 | 80 | 65 | 0.0 | 9.0 | 0.01 | 0.25 | 0.25 | 91 | 1015.0 |
| 20260901195003 | 80 | 0 | 0.0 | 0.0 | 0.01 | 0.25 | 0.25 | 90 | 1014.9 |
| 20260901194003 | 80 | 0 | 0.0 | 0.0 | 0.01 | 0.25 | 0.25 | 90 | 1015.0 |
| 20260901193003 | 81 | 0 | 0.0 | 0.0 | 0.01 | 0.24 | 0.24 | 90 | 1015.1 |
| 20260901192003 | 81 | 233 | 0.0 | 1.0 | 0.10 | 0.25 | 0.24 | 89 | 1015.2 |
| 20260901191004 | 82 | 0 | 0.0 | 0.0 | 0.24 | 0.27 | 0.24 | 90 | 1015.1 |
| 20260901190003 | 82 | 190 | 0.0 | 1.0 | 0.24 | 0.27 | 0.24 | 90 | 1015.0 |
| 20260901185004 | 82 | 0 | 0.0 | 0.0 | 0.24 | 0.27 | 0.24 | 90 | 1015.5 |
| 20260901184004 | 81 | 0 | 0.0 | 0.0 | 0.24 | 0.27 | 0.24 | 89 | 1015.6 |
| 20260901183024 | 81 | 0 | 0.0 | 0.0 | 0.23 | 0.26 | 0.24 | 86 | 1015.8 |
| 20260901182003 | 84 | 57 | 6.0 | 17.0 | 0.14 | 0.17 | 0.14 | 80 | 1016.1 |
| 20260901181003 | 88 | 16 | 1.0 | 9.0 | 0.00 | 0.03 | 0.00 | 73 | 1015.8 |
| 20260901180024 | 88 | 0 | 0.0 | 0.0 | 0.00 | 0.03 | 0.00 | 76 | 1016.0 |
| 20260901175024 | 87 | 45 | 0.0 | 1.0 | 0.00 | 0.03 | 0.00 | 78 | 1016.0 |
| 20260901174003 | 87 | 48 | 1.0 | 5.0 | 0.00 | 0.03 | 0.00 | 76 | 1016.3 |
| 20260901173004 | 87 | 48 | 5.0 | 12.0 | 0.00 | 0.03 | 0.00 | 74 | 1016.4 |
| 20260901172024 | 88 | 0 | 0.0 | 0.0 | 0.00 | 0.03 | 0.00 | 71 | 1016.5 |
| 20260901171003 | 90 | 21 | 0.0 | 1.0 | 0.00 | 0.03 | 0.00 | 69 | 1016.4 |
| 20260901170004 | 90 | 0 | 0.0 | 0.0 | 0.00 | 0.03 | 0.00 | 70 | 1016.5 |
| 20260901165024 | 89 | 0 | 0.0 | 0.0 | 0.00 | 0.03 | 0.00 | 69 | 1016.7 |
| 20260901164003 | 88 | 0 | 0.0 | 0.0 | 0.00 | 0.03 | 0.00 | 72 | 1016.9 |
| 20260901163003 | 88 | 0 | 0.0 | 0.0 | 0.00 | 0.03 | 0.00 | 73 | 1017.0 |
| 20260901162003 | 88 | 0 | 0.0 | 0.0 | 0.00 | 0.03 | 0.00 | 73 | 1017.0 |
| 20260901161003 | 88 | 0 | 0.0 | 0.0 | 0.00 | 0.03 | 0.00 | 75 | 1017.1 |
| 20260901160003 | 87 | 0 | 0.0 | 0.0 | 0.00 | 0.03 | 0.00 | 75 | 1017.1 |
| 20260901155003 | 88 | 0 | 0.0 | 0.0 | 0.00 | 0.03 | 0.00 | 73 | 1017.3 |
| 20260901154003 | 88 | 0 | 0.0 | 0.0 | 0.00 | 0.03 | 0.00 | 73 | 1017.4 |
| 20260901153003 | 87 | 0 | 0.0 | 0.0 | 0.00 | 0.03 | 0.00 | 75 | 1017.5 |
| 20260901152003 | 86 | 0 | 0.0 | 0.0 | 0.00 | 0.03 | 0.00 | 77 | 1017.7 |
| 20260901151003 | 86 | 0 | 0.0 | 0.0 | 0.00 | 0.03 | 0.00 | 76 | 1017.7 |
| 20260901150004 | 86 | 0 | 0.0 | 0.0 | 0.00 | 0.03 | 0.00 | 77 | 1017.4 |
| 20260901145004 | 85 | 0 | 0.0 | 0.0 | 0.00 | 0.03 | 0.00 | 77 | 1017.5 |
| 20260901144024 | 84 | 0 | 0.0 | 0.0 | 0.00 | 0.03 | 0.00 | 80 | 1017.3 |
| 20260901143024 | 84 | 0 | 0.0 | 0.0 | 0.00 | 0.03 | 0.00 | 80 | 1017.2 |
| 20260901142003 | 84 | 0 | 0.0 | 0.0 | 0.00 | 0.03 | 0.00 | 83 | 1017.3 |
| 20260901141003 | 84 | 0 | 0.0 | 0.0 | 0.00 | 0.03 | 0.00 | 83 | 1017.3 |
| 20260901140004 | 84 | 0 | 0.0 | 0.0 | 0.00 | 0.03 | 0.00 | 82 | 1017.2 |
| 20260901135003 | 83 | 9 | 0.0 | 1.0 | 0.00 | 0.03 | 0.00 | 85 | 1016.9 |
| 20260901134003 | 83 | 0 | 0.0 | 0.0 | 0.00 | 0.03 | 0.00 | 85 | 1017.1 |
| 20260901133024 | 83 | 0 | 0.0 | 0.0 | 0.00 | 0.03 | 0.00 | 86 | 1017.0 |
| 20260901132003 | 82 | 0 | 0.0 | 0.0 | 0.00 | 0.03 | 0.00 | 88 | 1016.9 |
| 20260901131003 | 82 | 0 | 0.0 | 0.0 | 0.00 | 0.03 | 0.00 | 89 | 1016.8 |
| 20260901130003 | 81 | 0 | 0.0 | 0.0 | 0.00 | 0.03 | 0.00 | 91 | 1017.0 |
| 20260901125004 | 81 | 0 | 0.0 | 0.0 | 0.00 | 0.03 | 0.00 | 92 | 1016.9 |
| 20260901124003 | 80 | 0 | 0.0 | 0.0 | 0.00 | 0.03 | 0.00 | 93 | 1016.9 |
| 20260901123003 | 80 | 0 | 0.0 | 0.0 | 0.00 | 0.03 | 0.00 | 93 | 1016.8 |
| 20260901122003 | 79 | 0 | 0.0 | 0.0 | 0.00 | 0.03 | 0.00 | 93 | 1016.7 |
| 20260901121003 | 79 | 0 | 0.0 | 0.0 | 0.00 | 0.03 | 0.00 | 94 | 1016.8 |
| 20260901120003 | 79 | 0 | 0.0 | 0.0 | 0.00 | 0.03 | 0.00 | 94 | 1016.6 |
| 20260901115025 | 78 | 0 | 0.0 | 0.0 | 0.00 | 0.03 | 0.00 | 94 | 1016.6 |
| 20260901114003 | 78 | 0 | 0.0 | 0.0 | 0.00 | 0.03 | 0.00 | 94 | 1016.5 |
| 20260901113003 | 78 | 0 | 0.0 | 0.0 | 0.00 | 0.03 | 0.00 | 94 | 1016.3 |
| 20260901112024 | 78 | 0 | 0.0 | 0.0 | 0.00 | 0.03 | 0.00 | 94 | 1016.1 |
| 20260901111004 | 78 | 0 | 0.0 | 0.0 | 0.00 | 0.03 | 0.00 | 94 | 1016.1 |
| 20260901110004 | 78 | 0 | 0.0 | 0.0 | 0.00 | 0.03 | 0.00 | 94 | 1016.1 |
| 20260901105003 | 78 | 0 | 0.0 | 0.0 | 0.00 | 0.03 | 0.00 | 94 | 1016.0 |
| 20260901104003 | 78 | 0 | 0.0 | 0.0 | 0.00 | 0.03 | 0.00 | 94 | 1015.9 |
| 20260901103003 | 78 | 0 | 0.0 | 0.0 | 0.00 | 0.03 | 0.00 | 94 | 1015.9 |
| 20260901102024 | 78 | 0 | 0.0 | 0.0 | 0.00 | 0.03 | 0.00 | 94 | 1015.9 |
| 20260901101003 | 78 | 0 | 0.0 | 0.0 | 0.00 | 0.03 | 0.00 | 94 | 1015.9 |
| 20260901100003 | 78 | 0 | 0.0 | 0.0 | 0.00 | 0.03 | 0.00 | 93 | 1015.8 |
| 20260901095003 | 77 | 0 | 0.0 | 0.0 | 0.00 | 0.03 | 0.00 | 93 | 1015.9 |
| 20260901094024 | 77 | 0 | 0.0 | 0.0 | 0.00 | 0.03 | 0.00 | 93 | 1015.8 |
| 20260901093003 | 78 | 0 | 0.0 | 0.0 | 0.00 | 0.03 | 0.00 | 93 | 1015.6 |
| 20260901092003 | 78 | 0 | 0.0 | 0.0 | 0.00 | 0.03 | 0.00 | 93 | 1015.5 |
| 20260901091003 | 78 | 0 | 0.0 | 0.0 | 0.00 | 0.03 | 0.00 | 93 | 1015.4 |